Zurück zum Katalog

TIANZHOU 10

AktivWissenschaftVLEO
NORAD 69049·PAYLOAD·🇨🇳 China

Gestartet May 11, 2026 von Wenchang Space Launch Site

Loading…

Nächste Überflüge (nächste 24 Stunden)

TLE

AktuellSource: Space-Track

Epoche: Sep 14, 2026, 14:01 UTC

1 69049U 26102A   26257.58463244  .00018605  00000-0  22780-3 0  9999
2 69049  41.4676 139.2408 0002663 278.8217  81.2320 15.59928303307941

Verfolge TIANZHOU 10 in Echtzeit mit AllMySat

Download on the App Store